Voltar ao catálogo

STARLINK-4588

AtivoComunicaçõesVLEO
NORAD 53641·PAYLOAD·🇺🇸 United States

Lançado Aug 28, 2022 de Cape Canaveral Space Force Station

Loading…

Próximas Passagens (próximas 24 horas)

TLE

AtualizadoSource: CelesTrak SupGP

Época: Sep 15, 2026, 01:16 UTC

1 53641C 22104BF  26258.05326389  .00009448  00000+0  30380-3 0  2586
2 53641  53.1569  83.1936 0001400  87.1133  84.9491 15.31699683    15

Acompanhe STARLINK-4588 em tempo real com AllMySat

Download on the App Store